{"data":{"norad_id":60594,"intl_designator":"2024-150M","name":"STARLINK-32210","alt_names":[],"object_type":"PAYLOAD","status":"ACTIVE","operator":null,"country":"US","launch_date":"2024-08-20","launch_site_code":"AFETR","launch_vehicle":null,"mission":null,"orbit_class":"UNKNOWN","rcs_meters":null,"size_class":null,"mass_kg":null,"dimensions":null,"purposes":["comms"],"wikipedia_slug":null,"has_3d_model":false,"image_url":null,"decayed_at":null,"tle_current":{"epoch":"2026-09-21T20:32:39.111072Z","epoch_age_seconds":71746,"freshness":"FRESH","line1":"1 60594U 24150M   26264.85600823 -.00000128  00000+0  73328-5 0  9997","line2":"2 60594  53.1589 111.7131 0001194  86.7123 273.4016 15.34389836118131","mean_motion":15.34389836,"eccentricity":0.0001194,"inclination_deg":53.1589,"raan_deg":111.7131,"arg_perigee_deg":86.7123,"mean_anomaly_deg":273.4016,"bstar":7.3328e-6,"rev_number":11813,"period_min":93.848379741222,"perigee_km":461.91664999211,"apogee_km":463.55024985555,"semimajor_km":6840.8704499238,"source":"CELESTRAK","updated_at":"2026-09-22T09:00:49.273509Z"}}}